Buffalo, NY

2:45 PM EDT on September 21, 2017 (GMT -0400)
Buffalo Niagara International

Weather History for KBUF - May, 2013

Change the Weather History Date:

Monday, May 20, 2013

  Actual Average Record
Temperature  
Mean Temperature 74 °F 58 °F  
Max Temperature 85 °F 68 °F 89 °F (2012)
Min Temperature 62 °F 49 °F 32 °F (1907)
Degree Days  
Heating Degree Days 0 8  
Month to date heating degree days 102 206  
Since 1 July heating degree days 5960 6487  
Cooling Degree Days 9 1  
Month to date cooling degree days 28 8  
Year to date cooling degree days 28 11  
Growing Degree Days 23 (Base 50)    
Moisture  
Dew Point 61 °F    
Average Humidity 66    
Maximum Humidity 84    
Minimum Humidity 48    
Precipitation  
Precipitation 0.00 in 0.12 in 1.31 in (1894)
Month to date precipitation 1.19 2.13  
Year to date precipitation 11.72 13.68  
Snow  
Snow 0.00 in 0.00 in 0.10 in (1907)
Month to date snowfall T 0.3  
Since 1 July snowfall 58.8 94.7  
Snow Depth 0.00 in    
Sea Level Pressure  
Sea Level Pressure 29.96 in    
Wind  
Wind Speed 6 mph (SW)    
Max Wind Speed 26 mph    
Max Gust Speed 33 mph    
Visibility 10 miles    
Events Thunderstorm    
T = Trace of Precipitation, MM = Missing Value Source: NWS Daily Summary

Daily Weather History Graph

Daily Weather History Graph

Search for Another Location

Airport or City:

Trip Planner

Search our weather history database for the weather conditions in past years. The results will help you decide how hot, cold, wet, or windy it might be!

Date:

Astronomy

May. 20, 2013 Rise Set
Actual Time 5:46 AM EDT 8:36 PM EDT
Civil Twilight 5:13 AM EDT 9:09 PM EDT
Nautical Twilight 4:31 AM EDT 9:52 PM EDT
Astronomical Twilight 3:43 AM EDT 10:41 PM EDT
Moon 3:35 PM EDT (5/20) 2:48 AM EDT (5/20)
Length of Visible Light 15h 56m
Length of Day
14h 49m
Waxing Gibbous, 75% of the Moon is Illuminated
May 20
Waxing Gibbous
May 25
Full
May 31
Last Quarter
Jun 8
New
Jun 16
First Quarter

Hourly Weather History & Observations

Time (EDT) Temp. Heat Index Dew Point Humidity Pressure Visibility Wind Dir Wind Speed Gust Speed Precip Events Conditions
12:54 AM 66.0 °F - 57.9 °F 75% 30.00 in 10.0 mi SSE 8.1 mph - N/A   Mostly Cloudy
1:54 AM 64.0 °F - 57.9 °F 80% 30.01 in 10.0 mi South 6.9 mph - N/A   Mostly Cloudy
2:54 AM 63.0 °F - 57.9 °F 84% 30.00 in 10.0 mi South 6.9 mph - N/A   Mostly Cloudy
3:54 AM 62.6 °F - 57.2 °F 82% 30.00 in 10.0 mi South 6.9 mph - N/A   Mostly Cloudy
4:54 AM 62.1 °F - 57.9 °F 86% 29.99 in 10.0 mi South 4.6 mph - N/A   Mostly Cloudy
5:54 AM 63.0 °F - 57.9 °F 84% 30.01 in 10.0 mi SSW 5.8 mph - N/A   Mostly Cloudy
6:54 AM 64.0 °F - 59.0 °F 84% 30.01 in 10.0 mi South 4.6 mph - N/A   Mostly Cloudy
7:54 AM 66.2 °F - 60.8 °F 83% 30.04 in 10.0 mi South 4.6 mph - N/A   Mostly Cloudy
8:54 AM 71.1 °F - 62.1 °F 73% 30.02 in 10.0 mi South 8.1 mph - N/A   Mostly Cloudy
9:54 AM 73.4 °F - 62.6 °F 69% 30.01 in 10.0 mi SSW 6.9 mph - N/A   Mostly Cloudy
10:54 AM 77.0 °F - 63.0 °F 62% 29.98 in 10.0 mi WSW 4.6 mph - N/A   Mostly Cloudy
11:54 AM 79.0 °F - 64.0 °F 60% 29.97 in 10.0 mi Calm Calm - N/A   Scattered Clouds
12:54 PM 80.1 °F 81.5 °F 63.0 °F 56% 29.98 in 10.0 mi SSW 3.5 mph - N/A   Scattered Clouds
1:54 PM 82.9 °F 84.0 °F 63.0 °F 51% 29.95 in 10.0 mi Calm Calm - N/A   Scattered Clouds
2:54 PM 84.0 °F 85.4 °F 64.0 °F 51% 29.94 in 10.0 mi SSW 8.1 mph - N/A   Scattered Clouds
3:54 PM 84.0 °F 84.5 °F 62.1 °F 47% 29.92 in 10.0 mi West 9.2 mph - N/A   Scattered Clouds
4:54 PM 84.9 °F 85.4 °F 62.1 °F 46% 29.89 in 10.0 mi Variable 6.9 mph - N/A   Scattered Clouds
5:54 PM 84.9 °F 85.4 °F 62.1 °F 46% 29.87 in 10.0 mi West 8.1 mph - N/A   Scattered Clouds
6:54 PM 84.0 °F 84.5 °F 62.1 °F 47% 29.86 in 10.0 mi West 6.9 mph - N/A   Scattered Clouds
7:54 PM 82.0 °F 83.1 °F 63.0 °F 52% 29.86 in 10.0 mi West 4.6 mph - N/A   Scattered Clouds
8:54 PM 81.0 °F 81.9 °F 62.1 °F 52% 29.86 in 10.0 mi West 3.5 mph - N/A   Scattered Clouds
10:54 PM 77.0 °F - 66.0 °F 69% 29.91 in 10.0 mi Calm Calm - N/A   Scattered Clouds
11:45 PM 71.6 °F - 59.0 °F 64% 29.95 in 10.0 mi NW 24.2 mph 33.4 mph N/A Thunderstorm Thunderstorm
11:54 PM 69.1 °F - 57.9 °F 68% 29.94 in 10.0 mi NNW 20.7 mph 29.9 mph N/A Thunderstorm Thunderstorm